User: anonymous
Location: State Camp
(41.2367°N, 77.7828°W)
Time: 13:54:32
(UTC-04:00)
Language:

ADEOS Rocket - Orbit

View from above orbital plane
View from above orbital plane
View from above satellite
View from above satellite

Ground track
Ground track

The orbit data is extracted from the following two-line orbital elements,

1 24279U 96046C   14203.80735005 -.00000007  00000-0  33135-4 0  6913
2 24279 098.7457 266.9812 0301309 114.1004 003.5377 13.46988053881488
Epoch (UTC): 22 July 2014 19:22:35
Eccentricity: 0.0301309
inclination: 98.7457°
perigee height: 858 km
apogee height: 1308 km
right ascension of ascending node: 266.9812°
argument of perigee: 114.1004°
revolutions per day: 13.46988053
mean anomaly at epoch: 3.5377°
orbit number at epoch: 88148

The dashed part of the orbit path shows where the satellite is in the earth's shadow,  

DLR